Stations météo

Publicité
Cassley, Grande-Bretagne (99003): Température de l'air & dewpoint: 10.01.2019 16:00:00 - 16.01.2019 16:00:00 (GMT)Cassley, Grande-Bretagne (99003): Quantités de précipitations: 10.01.2019 16:00:00 - 16.01.2019 16:00:00 (GMT)
Date & Time tt [°C] td [°C] rr [mm]
16.01.2019 16:00:00 2,7 1,7 0,0
16.01.2019 15:00:00 2,7 1,9 0,0
16.01.2019 14:00:00 2,7 1,8 0,0
16.01.2019 13:00:00 2,2 1,5 0,8
16.01.2019 12:00:00 1,1 0,8 1,2
16.01.2019 11:00:00 0,8 0,6 1,0
16.01.2019 10:00:00 0,4 0,0 1,6
16.01.2019 09:00:00 1,9 1,2 1,4
16.01.2019 08:00:00 2,6 1,6 0,6
16.01.2019 07:00:00 2,9 1,7 0,8
16.01.2019 06:00:00 3,6 2,0 1,4
16.01.2019 05:00:00 4,5 3,1 0,2
16.01.2019 04:00:00 5,5 3,8 0,0
16.01.2019 03:00:00 5,3 4,0 1,0
16.01.2019 02:00:00 6,0 4,3 0,2
16.01.2019 01:00:00 6,4 4,5 0,0
16.01.2019 00:00:00 6,8 4,8 0,0
15.01.2019 23:00:00 7,4 6,2 2,2
15.01.2019 22:00:00 9,2 6,8 1,8
15.01.2019 21:00:00 9,7 7,3 1,6
15.01.2019 20:00:00 9,5 7,2 1,6
15.01.2019 19:00:00 8,8 6,7 0,6
15.01.2019 18:00:00 8,4 5,4 0,0
15.01.2019 17:00:00 8,7 6,2 1,2
15.01.2019 16:00:00 8,8 5,9 1,4
15.01.2019 15:00:00 9,3 7,2 1,6
15.01.2019 14:00:00 9,6 7,6 0,2
15.01.2019 13:00:00 6,2 5,5 0,6
15.01.2019 12:00:00 6,6 5,4 0,6
15.01.2019 11:00:00 6,8 5,2 0,8
15.01.2019 10:00:00 6,6 4,8 1,2
15.01.2019 09:00:00 7,2 4,5 0,0
15.01.2019 08:00:00 7,1 4,3 0,0
15.01.2019 07:00:00 7,2 4,0 0,0
15.01.2019 06:00:00 7,5 4,5 0,0
15.01.2019 05:00:00 7,4 3,8 0,0
15.01.2019 04:00:00 7,9 6,2 0,2
15.01.2019 03:00:00 9,4 8,9 1,8
15.01.2019 02:00:00 9,6 8,8 0,6
15.01.2019 01:00:00 10,0 8,2 2,0
15.01.2019 00:00:00 9,5 7,6 3,6
14.01.2019 23:00:00 8,8 7,0 3,0
14.01.2019 22:00:00 8,3 6,6 1,2
14.01.2019 21:00:00 8,1 6,4 0,2
14.01.2019 20:00:00 7,7 5,8 0,0
14.01.2019 19:00:00 7,2 5,1 0,0
14.01.2019 18:00:00 6,3 4,6 0,0
14.01.2019 17:00:00 6,2 3,2 0,2
14.01.2019 16:00:00 5,5 2,6 0,0
14.01.2019 15:00:00 5,3 2,7 0,0
14.01.2019 14:00:00 5,2 2,8 0,0
14.01.2019 13:00:00 4,0 2,2 0,4
14.01.2019 12:00:00 3,4 1,9 0,2
14.01.2019 11:00:00 0,6 0,2 0,0
14.01.2019 10:00:00 -0,8 -1,0 0,0
14.01.2019 09:00:00 -1,6 -1,8 0,0
14.01.2019 08:00:00 -1,9 -2,4 0,0
14.01.2019 07:00:00 -1,2 -1,5 0,0
14.01.2019 06:00:00 -0,7 -1,6 0,0
14.01.2019 05:00:00 0,6 -0,6 0,0
14.01.2019 04:00:00 0,8 -0,6 0,0
14.01.2019 03:00:00 0,5 -0,8 0,0
14.01.2019 02:00:00 0,9 -0,2 0,0
14.01.2019 01:00:00 1,1 0,2 0,0
14.01.2019 00:00:00 1,9 0,8 0,0
13.01.2019 23:00:00 2,2 1,0 0,0
13.01.2019 22:00:00 2,5 1,5 0,0
13.01.2019 21:00:00 2,8 1,6 0,2
13.01.2019 20:00:00 4,5 2,8 0,2
13.01.2019 19:00:00 5,5 3,6 0,2
13.01.2019 18:00:00 5,7 4,2 0,8
13.01.2019 17:00:00 5,7 4,2 0,4
13.01.2019 16:00:00 5,3 3,6 1,8
13.01.2019 15:00:00 5,8 4,2 1,6
13.01.2019 14:00:00 5,6 2,4 0,4
13.01.2019 13:00:00 6,9 4,1 0,0
13.01.2019 12:00:00 6,8 4,7 0,2
13.01.2019 11:00:00 6,5 4,2 2,4
13.01.2019 10:00:00 6,7 4,9 0,8
13.01.2019 09:00:00 7,3 4,9 0,8
13.01.2019 08:00:00 7,3 5,0 1,4
13.01.2019 07:00:00 7,3 4,4 1,2
13.01.2019 06:00:00 7,8 5,7 2,0
13.01.2019 05:00:00 8,3 6,6 3,2
13.01.2019 04:00:00 9,0 7,9 2,6
13.01.2019 03:00:00 9,3 8,6 1,2
13.01.2019 02:00:00 9,5 8,7 2,2
13.01.2019 01:00:00 9,6 8,7 3,0
13.01.2019 00:00:00 9,6 8,6 7,0
12.01.2019 23:00:00 9,4 8,7 4,6
12.01.2019 22:00:00 9,4 8,8 9,0
12.01.2019 21:00:00 9,4 8,7 7,0
12.01.2019 20:00:00 9,4 8,7 3,8
12.01.2019 19:00:00 9,5 8,3 3,8
12.01.2019 18:00:00 9,3 8,3 3,6
12.01.2019 17:00:00 9,1 8,1 3,6
12.01.2019 16:00:00 8,7 7,6 1,6
12.01.2019 15:00:00 8,8 7,6 0,2
12.01.2019 14:00:00 8,4 7,2 0,2
12.01.2019 13:00:00 7,9 6,9 0,6
12.01.2019 12:00:00 7,4 6,3 0,8
12.01.2019 11:00:00 7,6 6,3 1,6
12.01.2019 10:00:00 7,5 6,2 0,8
12.01.2019 09:00:00 7,2 5,2 0,8
12.01.2019 08:00:00 7,3 4,9 0,2
12.01.2019 07:00:00 7,1 4,7 0,0
12.01.2019 06:00:00 7,2 5,1 0,6
12.01.2019 05:00:00 7,2 4,9 0,6
12.01.2019 04:00:00 7,0 5,3 0,8
12.01.2019 03:00:00 7,0 5,0 1,0
12.01.2019 02:00:00 7,1 5,2 0,6
12.01.2019 01:00:00 7,2 5,4 0,0
12.01.2019 00:00:00 6,9 5,3 1,4
11.01.2019 23:00:00 7,8 5,3 3,0
11.01.2019 22:00:00 9,6 7,8 3,2
11.01.2019 21:00:00 8,8 6,8 0,6
11.01.2019 20:00:00 8,1 5,5 0,0
11.01.2019 19:00:00 8,4 4,6 0,2
11.01.2019 18:00:00 7,4 6,0 0,0
11.01.2019 17:00:00 7,3 5,6 0,0
11.01.2019 16:00:00 7,5 5,9 0,0
11.01.2019 15:00:00 7,6 5,3 0,2
11.01.2019 14:00:00 7,6 6,2 0,0
11.01.2019 13:00:00 8,4 5,3 0,0
11.01.2019 12:00:00 8,1 5,6 0,0
11.01.2019 11:00:00 7,7 5,9 0,0
11.01.2019 10:00:00 7,4 5,5 0,0
11.01.2019 09:00:00 7,5 5,7 0,0
11.01.2019 08:00:00 7,3 6,3 0,2
11.01.2019 07:00:00 7,7 5,4 0,0
11.01.2019 06:00:00 7,6 6,0 0,0
11.01.2019 05:00:00 7,3 6,1 0,0
11.01.2019 04:00:00 7,1 5,8 0,0
11.01.2019 03:00:00 7,2 4,7 0,0
11.01.2019 02:00:00 6,9 4,3 0,0
11.01.2019 01:00:00 7,7 5,0 0,0
11.01.2019 00:00:00 8,2 4,2 0,0
10.01.2019 23:00:00 7,6 5,5 0,0
10.01.2019 22:00:00 8,4 4,9 0,0
10.01.2019 21:00:00 8,6 4,6 0,0
10.01.2019 20:00:00 8,4 5,6 0,0
10.01.2019 19:00:00 8,6 4,8 0,0
10.01.2019 18:00:00 8,8 6,1 0,0
10.01.2019 17:00:00 8,3 5,8 0,0
10.01.2019 16:00:00 8,3 5,1 0,0

tt = Température de l'air
td = dewpoint
rr = Quantités de précipitations

stations d'obs. à proximité